Location: Columbia
(38.9520°N, 92.3340°W)
Time: 11:55:56
(UTC-05:00)

Cosmos 1633 - Visible Passes

Search period start: 27 August 2014 00:00
Search period end: 06 September 2014 00:00
Orbit: 496 x 521 km, 82.5° (Epoch: 26 August)

Date Brightness Start Highest point End Pass type
(mag) Time Alt. Az. Time Alt. Az. Time Alt. Az.
27 Aug 5.9 21:30:53 10° WSW 21:33:03 15° WNW 21:35:14 10° NW visible
28 Aug 5.7 21:12:57 10° WSW 21:15:41 19° WNW 21:18:25 10° NNW visible
29 Aug 5.3 20:55:11 10° SW 20:58:18 24° WNW 21:01:26 10° NNW visible
30 Aug 4.8 20:37:32 10° SW 20:40:56 31° WNW 20:44:22 10° NNW visible
31 Aug 4.3 20:19:58 10° SSW 20:23:35 40° W 20:27:12 10° N visible
01 Sep 3.6 20:02:30 10° SSW 20:06:14 54° W 20:09:59 10° N visible
02 Sep 6.1 05:58:54 10° NNE 06:01:19 16° ENE 06:03:43 10° ESE visible
03 Sep 6.4 05:42:12 10° NE 05:43:53 13° ENE 05:45:35 10° E visible
05 Sep 6.7 20:31:44 10° W 20:32:41 11° WNW 20:33:38 10° WNW visible
